AEHF-4 (USA 288)

Last updated on Thu Jul 03 2025 00:02:48 GMT+0000 (Coordinated Universal Time)

1 43651U 18079A 25183.55332883 -.00000267 00000+0 00000+0 0 9994 2 43651 1.4663 347.2648 0046943 4.5933 60.6531 1.00273347 24795
UTC large
Height (km)
Speed (km/s)
/
Latitude / Longitude
Inclination (degrees)
Orbital Period (minutes)
Azimuth
Elevation
Range (km)
Doppler Factor

Next 0 passes for location: London (51.5072 / 0.1276)

Sorry there are no passes over London.